Powrót do katalogu

XINGRUI-11

AktywnyNaukaSSO
NORAD 64089·PAYLOAD·🇨🇳 China
Ta nazwa satelity nie została jeszcze potwierdzona przez oficjalne źródła.

Wystrzelony May 21, 2025 z Jiuquan Satellite Launch Center

Loading…

Następne Przeloty (najbliższe 24 godziny)

TLE

ŚwieżeSource: Space-Track

Epoka: Sep 14, 2026, 15:33 UTC

1 64089U 25108C   26257.64842876  .00003201  00000-0  18521-3 0  9996
2 64089  97.4615 329.9326 0006593  95.0974 265.1010 15.12936836 72796

Śledź XINGRUI-11 w czasie rzeczywistym z AllMySat

Download on the App Store